Preview of NWS' New Version of Forecast
This preview is not operational and should not be used for support decisions.

Regional Weather Roundup (RWR)

Issued by National Weather Service (NWS)

                            
000
ASUS45 KCYS 210710
RWRWY 

WYOMING REGIONAL WEATHER ROUNDUP
NATIONAL WEATHER SERVICE CHEYENNE WY
100 AM MDT WED AUG 21 2019

NOTE:  "FAIR" INDICATES FEW OR NO CLOUDS BELOW 12,000 FEET
WITH NO SIGNIFICANT WEATHER AND/OR OBSTRUCTIONS TO VISIBILITY.

WYZ001-210800-
YELLOWSTONE NATIONAL PARK
  
CITY           SKY/WX    TMP DP  RH WIND       PRES   REMARKS
LK YELLOWSTONE   N/A     47  38  71 CALM      30.37S                  
W YELLOWSTONE  NOT AVBL                                               

$$
WYZ002>013-054>058-071-098>099-210800-
NORTHERN WYOMING
  
CITY           SKY/WX    TMP DP  RH WIND       PRES   REMARKS
JACKSON        FAIR      55  35  47 N9        30.24R                  
CODY           FAIR      64  52  64 NE6       30.20R                  
GREYBULL       FAIR      73  53  49 W6        30.09R                  
WORLAND        FAIR      69  54  58 CALM      30.09S                  
SHERIDAN       FAIR      65  53  65 S5        30.10F                  
BUFFALO        FAIR      64  53  67 SE6       30.16F                  
GILLETTE       FAIR      67  55  65 SE5       30.13S                  
HULETT         FAIR      63  54  72 N3        30.16S                  
NEWCASTLE      FAIR      63  52  67 SE8       30.15                   

$$
WYZ014>020-022>026-101>103-210800-
CENTRAL WYOMING
  
CITY           SKY/WX    TMP DP  RH WIND       PRES   REMARKS
BIG PINEY      FAIR      54  25  32 CALM      30.27R                  
PINEDALE       FAIR      46  32  57 NW8       30.27S                  
DUBOIS         FAIR      54  32  43 CALM      30.32R                  
LANDER         FAIR      69  51  52 MISG      30.20S                  
RIVERTON       FAIR      71  52  50 NE13      30.17F                  
CASPER         FAIR      58  50  75 NW5       30.17S                  
DOUGLAS        FAIR      64  52  64 E10       30.15F                  

$$
WYZ021-027>030-104>119-210800-
SOUTHERN WYOMING
  
CITY           SKY/WX    TMP DP  RH WIND       PRES   REMARKS
EVANSTON       FAIR      61  21  21 SE8       30.27S                  
KEMMERER       FAIR      57  28  33 NW7       30.28S                  
ROCK SPRINGS   FAIR      66  25  21 SW12      30.22S                  
DIXON          FAIR      59  26  28 E10G24    30.24S                  
RAWLINS        FAIR      60  52  74 NE12      30.24F                  
SARATOGA       FAIR      63  36  36 S9        30.24F                  
LARAMIE        FAIR      55  48  77 NE3       30.30S                  
CHEYENNE       CLOUDY    57  54  89 E6        30.28R                  
TORRINGTON     FAIR      61  58  90 S9        30.11F                  
PINE BLUFFS    TSTM      57  55  94 CALM      30.25R                  

$$